[[{"header":{"parameterUnit":"m.s-1","parameterCategory":1,"la1":30.2991,"la2":30.254,"lo1":-89.0895,"lo2":-89.0444,"dy":0.0017,"dx":0.0017,"nx":28,"ny":28,"refTime":"2023-10-07T21:00:00:Z","depth":0,"parameterNumber":2,"parameterNumberName":"U-component_of_WINDS"},"data":[0,0,0,0,0,0,0,0,0,0,0,0,0,0,0,0,0,0,0,0,0,0,0,0,0,0,0,0,0,0,0,0,0,0,0,0,0,0,0,0,0,0,0,0,0,0,0,0,0,0,0,0,0,0,0,0,0,0,-0.5217,-0.5218,0,-0.5281,-0.5282,-0.5282,-0.5323,-0.5323,-0.5324,-0.5324,-0.5389,-0.5391,-0.5392,0,0,0,0,0,0,0,0,0,0,0,0,0,-0.5129,-0.5131,-0.5217,-0.5218,-0.5218,-0.5281,-0.5282,-0.5283,-0.5323,-0.5323,-0.5324,-0.5324,-0.5389,-0.5391,-0.5392,0,0,0,0,0,0,0,0,0,0,0,0,0,-0.5178,-0.5131,-0.5217,-0.5246,-0.5249,-0.5281,-0.5282,-0.5283,-0.5323,-0.5323,-0.5324,-0.5324,-0.5388,-0.539,-0.5393,-0.54,0,0,-0.54,-0.5401,0,0,0,0,0,0,0,0,-0.5175,-0.5181,-0.5241,-0.5244,-0.5248,-0.5294,-0.5275,-0.5322,-0.5323,-0.5295,-0.5324,-0.5324,-0.5357,-0.5362,-0.5374,-0.5403,-0.5406,-0.54,-0.5401,-0.5402,-0.5403,0,0,0,0,0,0,0,-0.5171,-0.5178,-0.5242,-0.5242,-0.5246,-0.5256,-0.5263,-0.5284,-0.5323,-0.5297,-0.5301,-0.5308,-0.5359,-0.5371,-0.5375,-0.5406,-0.54,-0.5402,-0.5403,-0.5404,-0.5445,-0.5444,0,0,0,0,0,0,-0.5163,-0.5175,-0.524,-0.5244,-0.5211,-0.5257,-0.5266,-0.5279,-0.5323,-0.533,-0.5307,-0.5309,-0.5367,-0.5373,-0.5378,-0.5389,-0.5402,-0.5404,-0.5406,-0.5445,-0.5445,-0.5444,0,0,0,0,0,0,-0.5161,-0.5169,-0.5238,-0.5211,-0.522,-0.5259,-0.5273,-0.528,-0.5292,-0.5331,-0.5338,-0.5312,-0.5368,-0.5375,-0.5394,-0.5392,-0.5405,-0.5407,-0.5445,-0.5445,-0.5444,-0.541,0,0,0,0,0,0,-0.5159,-0.5168,-0.5171,-0.521,-0.5221,-0.5252,-0.5273,-0.5281,-0.5296,-0.5299,-0.5337,-0.5344,-0.5368,-0.539,-0.5396,-0.5395,-0.5409,-0.5446,-0.5445,-0.5445,-0.5412,-0.5409,-0.5406,0,0,0,0,0,-0.5155,-0.5159,-0.5171,-0.5178,-0.5226,-0.5252,-0.5259,-0.5287,-0.5296,-0.5299,-0.5324,-0.5343,-0.5391,-0.5392,-0.5399,-0.5398,-0.5446,-0.5445,-0.5445,-0.5413,-0.5409,-0.5406,0,0,0,0,0,0,-0.5118,-0.5164,-0.5178,-0.5195,-0.5219,-0.5259,-0.5264,-0.5282,-0.5305,-0.5307,-0.5341,-0.5349,-0.5365,-0.5384,-0.5384,-0.5407,-0.5421,-0.5421,-0.5394,-0.5391,-0.5388,-0.5383,-0.5411,0,0,0,0,0,-0.5112,-0.5129,-0.5169,-0.5179,-0.5191,-0.5225,-0.5238,-0.5258,-0.5284,-0.5295,-0.5321,-0.5346,-0.5368,-0.5381,-0.5402,-0.5415,-0.5424,-0.5418,-0.5415,-0.5413,-0.5413,-0.5421,-0.5419,-0.5442,-0.5442,-0.5442,0,0,-0.5099,-0.5126,-0.5135,-0.5172,-0.5194,-0.5211,-0.5234,-0.5251,-0.5264,-0.5298,-0.5317,-0.5338,-0.5368,-0.5384,-0.5393,-0.54,-0.5408,-0.5412,-0.541,-0.5411,-0.542,-0.5418,-0.5416,-0.5442,-0.5442,-0.5442,0,0,-0.5084,-0.5106,-0.5117,-0.5138,-0.5171,-0.5193,-0.5196,-0.5233,-0.5248,-0.5268,-0.5294,-0.531,-0.5345,-0.5366,-0.5381,-0.5374,-0.5392,-0.538,-0.5365,-0.5373,-0.5371,-0.5369,-0.5366,-0.5365,-0.538,-0.538,-0.538,0,-0.5063,-0.509,-0.5121,-0.5137,-0.5152,-0.5183,-0.5195,-0.5214,-0.5251,-0.5261,-0.5269,-0.5314,-0.5337,-0.5358,-0.5357,-0.5368,-0.5372,-0.5376,-0.5369,-0.5367,-0.5366,-0.5364,-0.5363,-0.5378,-0.5378,-0.5379,-0.5379,0,-0.5064,-0.5082,-0.5087,-0.5122,-0.5139,-0.5152,-0.5184,-0.5197,-0.5216,-0.5238,-0.5258,-0.5287,-0.5314,-0.5321,-0.5339,-0.5345,-0.5348,-0.5362,-0.5376,-0.5362,-0.536,-0.536,-0.5376,-0.5376,-0.5377,-0.5377,0,0,-0.5026,-0.5078,-0.508,-0.5096,-0.5134,-0.5148,-0.5163,-0.5191,-0.5201,-0.5226,-0.5239,-0.5268,-0.5281,-0.5298,-0.5319,-0.5326,-0.5318,-0.5339,-0.534,-0.5333,-0.5325,-0.5314,-0.5313,-0.533,-0.533,-0.533,-0.5323,0,-0.5016,-0.5045,-0.5073,-0.5091,-0.5108,-0.5138,-0.5151,-0.5176,-0.5197,-0.5214,-0.5238,-0.5258,-0.5274,-0.5284,-0.5292,-0.5317,-0.5316,-0.5318,-0.5342,-0.5343,-0.5333,-0.5312,-0.53,-0.5292,-0.5322,-0.5322,-0.5322,0,-0.5008,-0.5032,-0.5052,-0.5088,-0.5096,-0.5107,-0.5134,-0.5151,-0.5179,-0.5194,-0.5213,-0.5235,-0.5253,-0.5265,-0.5289,-0.5289,-0.5301,-0.5315,-0.5315,-0.5318,-0.5331,-0.5314,-0.529,-0.5288,-0.5321,-0.5321,-0.5321,0,-0.4978,-0.5015,-0.5031,-0.5045,-0.5087,-0.5094,-0.5112,-0.5141,-0.5156,-0.518,-0.5189,-0.5215,-0.5228,-0.5248,-0.5276,-0.5282,-0.5297,-0.5312,-0.5309,-0.5309,-0.531,-0.531,-0.5287,-0.5319,-0.5319,-0.5319,-0.5319,0,-0.4964,-0.4975,-0.5018,-0.5028,-0.5042,-0.5074,-0.5086,-0.5107,-0.5132,-0.5147,-0.5175,-0.5188,-0.5225,-0.5242,-0.5265,-0.5281,-0.5287,-0.53,-0.5305,-0.5297,-0.5295,-0.5304,-0.5305,-0.5319,-0.5319,-0.5319,-0.5319,0,-0.4932,-0.4962,-0.4982,-0.5021,-0.5031,-0.5039,-0.5072,-0.5083,-0.5106,-0.5124,-0.513,-0.5166,-0.5188,-0.5218,-0.525,-0.5265,-0.5278,-0.5288,-0.5268,-0.5271,-0.5267,-0.5267,-0.525,-0.5249,-0.5281,-0.5281,-0.528,0,-0.4921,-0.493,-0.4969,-0.4981,-0.4998,-0.5017,-0.5032,-0.5064,-0.5079,-0.5112,-0.5119,-0.5143,-0.5164,-0.5198,-0.5227,-0.5251,-0.5261,-0.5254,-0.5265,-0.5256,-0.526,-0.5259,-0.526,-0.525,-0.525,-0.5249,-0.5249,0,-0.4897,-0.4911,-0.4931,-0.4957,-0.4974,-0.4995,-0.5018,-0.5027,-0.5064,-0.5079,-0.5102,-0.5118,-0.515,-0.5174,-0.5202,-0.5221,-0.5241,-0.5245,-0.5246,-0.5237,-0.5225,-0.5231,-0.526,-0.5245,-0.5246,-0.5246,-0.5246,-0.5246,-0.4874,-0.4884,-0.4913,-0.4935,-0.4955,-0.4976,-0.4988,-0.5013,-0.5032,-0.5061,-0.5079,-0.5101,-0.513,-0.517,-0.5188,-0.5206,-0.5214,-0.5215,-0.5215,-0.5214,-0.5211,-0.5223,-0.5211,-0.5211,-0.5211,-0.5211,-0.5211,0,-0.4851,-0.4872,-0.4891,-0.4923,-0.494,-0.4958,-0.4984,-0.4997,-0.5016,-0.5041,-0.5061,-0.5088,-0.5111,-0.5142,-0.5167,-0.5175,-0.5185,-0.5181,-0.518,-0.5184,-0.5203,-0.5199,-0.5172,-0.5172,-0.5172,-0.5172,-0.5172,-0.5172,-0.4841,-0.4858,-0.4875,-0.4903,-0.4923,-0.4945,-0.4958,-0.4978,-0.4998,-0.5026,-0.5045,-0.5065,-0.5093,-0.512,-0.5143,-0.5151,-0.5159,-0.5151,-0.5163,-0.5179,-0.5183,-0.5186,-0.5183,-0.5153,-0.5153,-0.5142,-0.5142,-0.5142]},{"header":{"parameterUnit":"m.s-1","parameterCategory":1,"la1":30.2991,"la2":30.254,"lo1":-89.0895,"lo2":-89.0444,"dy":0.0017,"dx":0.0017,"nx":28,"ny":28,"refTime":"2023-10-07T21:00:00:Z","depth":0,"parameterNumber":3,"parameterNumberName":"V-component_of_WINDS"},"data":[0,0,0,0,0,0,0,0,0,0,0,0,0,0,0,0,0,0,0,0,0,0,0,0,0,0,0,0,0,0,0,0,0,0,0,0,0,0,0,0,0,0,0,0,0,0,0,0,0,0,0,0,0,0,0,0,0,0,0.2138,0.2138,0,0.2178,0.2179,0.2179,0.2215,0.2216,0.2216,0.2217,0.2255,0.2255,0.2256,0,0,0,0,0,0,0,0,0,0,0,0,0,0.2089,0.209,0.2138,0.2138,0.2139,0.2178,0.2179,0.2179,0.2215,0.2216,0.2216,0.2217,0.2254,0.2255,0.2256,0,0,0,0,0,0,0,0,0,0,0,0,0,0.2118,0.209,0.2138,0.2162,0.2164,0.2178,0.2179,0.2179,0.2215,0.2216,0.2217,0.2217,0.2254,0.2255,0.2256,0.2248,0,0,0.2259,0.2259,0,0,0,0,0,0,0,0,0.2116,0.212,0.2158,0.216,0.2163,0.2193,0.2175,0.2202,0.2215,0.2196,0.2217,0.2218,0.2233,0.2236,0.2242,0.225,0.2251,0.2259,0.2259,0.226,0.226,0,0,0,0,0,0,0,0.2114,0.2118,0.2154,0.2158,0.2161,0.217,0.2174,0.2181,0.221,0.2197,0.22,0.2205,0.2235,0.2241,0.2243,0.2252,0.2259,0.226,0.226,0.226,0.2256,0.2256,0,0,0,0,0,0,0.2109,0.2116,0.2152,0.2155,0.2141,0.217,0.2175,0.2182,0.221,0.2215,0.2204,0.2206,0.2239,0.2242,0.2244,0.2238,0.226,0.226,0.2261,0.2257,0.2256,0.2256,0,0,0,0,0,0,0.2108,0.2112,0.2151,0.2136,0.2142,0.217,0.2178,0.2183,0.2189,0.2215,0.222,0.2205,0.224,0.2243,0.2247,0.224,0.2261,0.2262,0.2258,0.2257,0.2256,0.2224,0,0,0,0,0,0,0.2106,0.2111,0.2109,0.2136,0.2143,0.2154,0.2177,0.2183,0.2191,0.2194,0.2218,0.2222,0.224,0.2246,0.2248,0.2241,0.2262,0.2259,0.2257,0.2256,0.2226,0.2222,0.2219,0,0,0,0,0,0.2104,0.2098,0.2109,0.2113,0.2141,0.2153,0.2157,0.2179,0.219,0.2188,0.2205,0.2221,0.224,0.2246,0.2249,0.2242,0.2259,0.2258,0.2256,0.2228,0.2223,0.2219,0,0,0,0,0,0,0.2068,0.2102,0.2114,0.2116,0.2132,0.2159,0.2157,0.2173,0.2185,0.2187,0.2213,0.2218,0.222,0.2231,0.2237,0.2236,0.2252,0.2251,0.2229,0.2225,0.2221,0.2219,0.2263,0,0,0,0,0,0.206,0.2069,0.2097,0.2096,0.2103,0.2129,0.2135,0.2151,0.2168,0.2174,0.2191,0.2206,0.2215,0.222,0.223,0.2228,0.2233,0.2224,0.2221,0.2218,0.2217,0.2217,0.2213,0.2251,0.2251,0.2251,0,0,0.2044,0.2064,0.2067,0.2089,0.2103,0.211,0.2134,0.214,0.2146,0.2174,0.218,0.2193,0.2211,0.2212,0.2213,0.2222,0.2208,0.2216,0.2213,0.2214,0.2215,0.2211,0.2208,0.225,0.225,0.225,0,0,0.2019,0.2034,0.2036,0.2049,0.2071,0.2088,0.2088,0.2113,0.2123,0.213,0.2151,0.2158,0.2173,0.2185,0.2193,0.2173,0.2189,0.2175,0.2157,0.2157,0.2154,0.2151,0.2145,0.2142,0.2174,0.2174,0.2174,0,0.1996,0.2009,0.2034,0.204,0.2049,0.2076,0.2078,0.2089,0.2112,0.2117,0.2126,0.2147,0.216,0.2165,0.216,0.2166,0.2167,0.2173,0.2152,0.215,0.2148,0.2142,0.214,0.2172,0.2173,0.2173,0.2173,0,0.198,0.1989,0.1987,0.201,0.2019,0.2022,0.2047,0.2053,0.2068,0.2084,0.2089,0.2107,0.2122,0.2124,0.2138,0.213,0.2135,0.2148,0.2164,0.2143,0.2137,0.2135,0.217,0.2171,0.2171,0.2171,0,0,0.1933,0.197,0.1969,0.198,0.2006,0.2013,0.2017,0.2032,0.2037,0.2051,0.2056,0.2068,0.2081,0.209,0.2106,0.2105,0.2089,0.2119,0.2119,0.2113,0.2082,0.2073,0.207,0.2099,0.2099,0.2099,0.2081,0,0.1912,0.1924,0.1946,0.195,0.1958,0.1984,0.1988,0.2004,0.2018,0.2027,0.2043,0.2052,0.2067,0.2073,0.2074,0.2091,0.2083,0.2092,0.2103,0.2103,0.2099,0.2067,0.2057,0.2039,0.2079,0.2079,0.2078,0,0.189,0.1905,0.1909,0.1935,0.194,0.1943,0.1959,0.1967,0.1985,0.1996,0.2006,0.2024,0.203,0.2044,0.2052,0.2057,0.2063,0.2072,0.2072,0.2074,0.209,0.2069,0.2034,0.2032,0.2075,0.2076,0.2076,0,0.1856,0.1877,0.1883,0.1891,0.1921,0.1923,0.1935,0.1954,0.1962,0.1976,0.1981,0.1994,0.2002,0.2011,0.2032,0.2041,0.2037,0.2054,0.2046,0.2046,0.2045,0.2045,0.2011,0.2047,0.2047,0.2047,0.2047,0,0.1831,0.1833,0.1868,0.1872,0.1875,0.19,0.1902,0.1917,0.1933,0.194,0.1962,0.1967,0.1994,0.2002,0.2018,0.2022,0.2025,0.2034,0.2038,0.2032,0.2031,0.2036,0.2038,0.2047,0.2047,0.2047,0.2047,0,0.1794,0.1818,0.1826,0.1854,0.1861,0.1862,0.1886,0.189,0.1906,0.1914,0.1917,0.1942,0.1953,0.1975,0.1991,0.2001,0.2002,0.2009,0.1996,0.1999,0.1991,0.1992,0.196,0.1957,0.1995,0.1994,0.1994,0,0.1777,0.178,0.1808,0.1815,0.1827,0.1837,0.1846,0.1871,0.1879,0.19,0.1901,0.1914,0.1926,0.1941,0.196,0.1973,0.1981,0.1969,0.1983,0.1977,0.1981,0.1981,0.1982,0.1966,0.1965,0.1965,0.1965,0,0.1745,0.1756,0.1769,0.1785,0.1795,0.1809,0.1824,0.1827,0.1856,0.1863,0.1875,0.1884,0.1902,0.1914,0.193,0.1941,0.1957,0.196,0.1959,0.1954,0.1946,0.1951,0.1989,0.1961,0.1961,0.1961,0.1962,0.1962,0.1718,0.1721,0.1743,0.1756,0.177,0.1783,0.1789,0.1807,0.1817,0.1835,0.1848,0.1859,0.1877,0.19,0.191,0.1919,0.1926,0.1925,0.1925,0.1924,0.1922,0.1945,0.1921,0.1921,0.1922,0.1922,0.1922,0,0.1687,0.1702,0.1714,0.1735,0.1745,0.1761,0.1778,0.1785,0.1795,0.1811,0.1822,0.1836,0.1848,0.1869,0.1882,0.1885,0.1893,0.1888,0.1888,0.189,0.1914,0.1914,0.1881,0.1881,0.1881,0.1881,0.1881,0.1881,0.1672,0.168,0.1694,0.1708,0.1723,0.1735,0.1744,0.1756,0.1769,0.1784,0.1795,0.1809,0.1826,0.1842,0.1853,0.1859,0.1863,0.1856,0.1863,0.1885,0.1889,0.1892,0.1892,0.1856,0.1856,0.184,0.184,0.1839]}]]